Dewpoint
50 50 51 51 51 51 50 50 50 50 50 50 51 51 51 51 51 51 51 51 51 51 51 52 52 52 52 53 53 53 53 47 43 40 37 42 49 52 55 56 57 58 58 43 37 34 28 24 20 13 5 6 6 5 5 6 9 12 12 11 12 14 14 16 16 15 14 13 14 15 14 15 15 17 18 19 19 16 18 20 20 19 18 50 52 57 61 62
51 51 51 51 51 51 50 50 50 50 50 50 50 51 51 51 50 51 51 51 51 51 51 51 52 52 52 52 53 53 50 46 43 40 38 49 51 54 54 55 55 57 56 39 38 33 24 11 5 6 7 4 5 5 6 2 4 7 11 11 10 13 14 15 18 19 16 13 14 14 13 15 14 14 17 17 18 18 20 21 20 18 32 53 58 58 59 61
51 51 51 50 50 50 50 51 51 50 50 50 50 50 50 51 51 51 51 51 51 51 52 52 52 52 52 53 53 53 49 45 41 37 36 56 54 54 55 55 57 57 46 37 36 31 14 9 9 10 8 5 5 4 6 3 1 1 6 8 9 10 12 15 17 18 19 17 17 13 13 13 15 15 15 15 18 19 20 20 20 18 26 52 60 62 62 63
51 51 50 51 51 50 50 50 50 50 50 50 50 50 50 51 51 51 51 51 51 51 51 52 52 52 53 53 53 51 46 43 37 34 35 53 54 56 54 56 57 53 37 36 37 30 16 10 7 6 4 3 4 4 3 1 2 -0 -0 1 4 8 10 13 13 11 16 19 19 12 15 14 13 15 14 14 13 18 19 21 20 18 35 51 54 57 60 63
51 50 50 50 50 50 50 50 50 50 50 50 50 51 51 51 51 51 51 51 52 52 52 52 52 52 53 53 53 48 44 39 33 35 35 51 52 56 56 56 57 39 33 33 29 20 17 14 9 4 0 -2 -3 -4 -3 -0 2 2 -1 -1 1 2 4 5 8 16 17 18 17 17 18 17 14 16 15 13 13 16 21 22 18 17 18 52 53 55 58 62
50 50 50 50 51 51 51 51 50 50 50 50 50 51 51 51 51 51 51 52 52 52 52 52 52 52 53 53 50 46 43 28 32 33 53 50 56 55 57 58 58 46 33 32 29 22 17 12 10 3 1 2 -1 -4 -5 -3 -0 1 1 -1 -3 -4 -2 2 7 10 10 12 13 16 17 16 17 18 18 14 13 16 17 20 20 19 20 54 57 57 61 64
50 50 50 50 50 50 50 50 50 50 50 50 51 51 51 51 51 51 52 52 51 52 52 52 53 53 53 53 48 45 42 34 34 38 57 50 53 55 55 57 58 37 32 29 24 18 16 15 14 8 5 2 -2 -4 -6 -7 -3 -0 -0 2 2 1 0 2 2 3 3 8 9 7 13 15 17 16 16 17 15 15 17 18 20 24 34 47 51 62 63 65
50 50 50 51 50 50 50 50 50 50 50 51 51 51 51 51 51 52 53 52 52 52 53 53 53 53 53 46 41 40 38 29 32 35 54 58 45 45 52 35 29 27 22 21 19 16 15 12 9 9 6 4 3 -0 -3 -6 -7 -8 -2 1 3 4 6 5 4 1 -1 1 3 7 15 17 16 16 17 17 16 15 15 17 19 19 42 37 50 51 65 66
50 51 51 50 50 50 50 50 50 50 51 51 51 51 51 52 53 53 53 52 52 52 53 53 53 53 53 48 44 40 30 27 27 28 38 37 33 29 29 27 28 25 21 19 19 17 14 9 10 8 7 8 8 6 6 2 -0 -3 -7 -6 -4 3 6 4 9 7 1 2 4 4 6 14 17 16 16 17 16 16 15 14 17 23 38 42 39 51 60 66
50 50 50 50 50 50 50 50 50 51 51 51 51 52 52 53 53 53 52 52 53 53 54 54 53 53 49 45 44 40 24 26 29 29 28 27 28 28 27 22 22 21 20 19 19 17 17 17 16 15 15 12 10 7 6 5 3 3 1 -1 -1 2 4 5 6 10 10 8 2 5 9 14 15 16 15 17 17 17 16 14 17 27 34 49 40 53 58 65
49 49 49 50 50 50 50 50 50 51 51 51 52 52 53 53 53 53 53 53 54 54 54 53 53 52 46 44 41 29 24 26 25 27 28 26 25 26 26 27 26 23 20 20 19 18 16 18 16 17 15 8 6 4 2 1 2 2 0 -1 -1 0 0 2 4 6 9 7 8 10 12 14 13 13 13 15 16 17 15 17 21 26 27 49 50 52 58 64
49 49 50 50 50 50 50 50 51 51 52 51 52 52 53 53 53 53 54 54 54 54 54 54 52 47 44 43 40 22 24 25 26 25 26 27 26 26 24 23 23 23 22 20 20 20 20 20 19 18 12 14 11 10 8 6 4 2 1 -0 -0 -1 -1 0 -1 2 6 6 9 12 12 11 11 11 13 15 17 23 20 25 31 39 42 43 51 54 59 60
50 50 50 50 50 50 50 50 51 51 51 52 52 52 53 53 53 53 54 53 52 53 53 53 53 47 46 45 21 23 24 26 25 26 27 28 25 25 23 22 22 21 20 19 18 18 19 20 20 17 16 14 12 10 11 10 8 7 6 5 3 0 -3 -3 -3 -5 -4 0 5 8 6 6 7 9 11 14 16 16 23 23 23 31 32 42 58 59 60 63
49 49 49 49 50 50 50 51 51 51 52 52 52 53 53 53 54 53 53 53 54 53 53 52 48 45 46 40 22 26 28 27 27 28 28 25 21 21 24 22 22 21 20 19 17 17 17 18 18 18 17 14 13 13 9 7 5 2 3 3 3 -0 -2 -1 -2 -5 -7 -6 -5 -0 1 1 3 5 7 9 13 24 22 23 23 31 31 29 50 57 58 62
49 49 49 49 50 50 50 51 51 51 52 52 53 53 52 53 54 53 53 53 54 54 52 52 46 45 46 33 26 27 44 33 29 27 28 25 23 20 19 22 22 22 22 20 17 17 18 18 16 14 12 13 13 11 6 -1 -5 -3 -2 -4 -5 -5 -5 -5 -5 -5 -7 -7 -7 -9 -5 -3 0 2 3 6 18 26 20 18 19 25 28 30 30 51 56 58
49 49 49 49 50 50 50 51 51 51 52 52 53 52 53 53 53 52 54 54 55 53 50 46 48 44 39 34 26 42 32 29 28 26 28 28 26 21 21 22 22 20 18 20 19 18 14 13 13 14 13 13 12 10 6 -0 -3 -3 -5 -5 -6 -6 -6 -7 -7 -6 -8 -9 -8 -9 -11 -8 -3 0 2 16 23 21 15 18 18 27 32 33 32 34 52 56
49 49 49 49 49 49 50 51 51 51 52 52 52 52 51 52 53 51 54 54 50 48 43 43 39 41 36 23 26 28 24 23 26 26 26 26 27 23 20 20 20 20 20 21 20 18 16 13 14 13 11 8 7 6 7 6 5 0 -4 -3 -6 -7 -7 -8 -4 -3 -8 -8 -8 -9 -11 -9 -4 -0 3 22 23 19 10 8 20 21 19 18 24 26 28 43
49 49 49 49 49 49 50 50 51 51 52 52 51 51 50 52 53 51 51 51 45 44 43 43 40 37 31 30 22 22 24 24 26 26 26 27 27 22 20 20 21 21 20 17 17 17 17 12 12 9 8 9 7 -0 1 -2 -0 2 4 4 -2 -5 -5 -5 -4 -6 -7 -5 -7 -8 -10 -14 -6 -1 -0 1 17 12 13 14 16 16 14 14 26 24 22 26
49 49 49 49 49 50 50 50 51 51 51 51 50 51 53 51 45 45 43 43 45 45 45 37 36 30 19 22 24 24 25 25 26 27 26 28 28 27 24 23 20 17 12 10 10 14 14 10 11 10 8 6 5 5 2 0 -1 -1 -3 -5 -5 -3 -3 -4 -5 -5 -6 -10 -7 4 -7 -4 -3 -3 -2 5 6 7 10 14 17 19 18 22 24 22 23 27
49 49 49 49 49 49 50 50 51 51 51 49 47 50 50 45 45 45 44 44 40 34 28 21 22 22 21 22 23 25 26 26 25 26 25 28 23 19 19 20 19 19 17 14 11 12 11 10 12 12 9 6 5 2 -2 -1 -2 -3 -3 -2 -4 -6 -7 -8 -10 -10 -13 -15 -12 -2 4 -0 3 5 6 4 3 9 11 13 18 25 23 20 24 22 25 31
49 49 49 49 49 49 50 50 51 51 51 49 48 44 35 37 31 32 36 32 31 33 22 21 23 22 21 24 26 26 24 26 27 28 28 23 19 19 15 18 18 16 15 15 13 13 12 13 11 8 6 4 2 2 1 -1 2 5 3 -0 -4 -6 -8 -9 -10 -10 -17 -18 -12 -6 -0 3 6 7 5 6 7 -0 4 9 11 13 12 23 23 24 19 28
49 49 49 49 49 50 50 50 50 51 50 49 49 37 36 39 40 39 37 30 34 27 24 23 24 22 26 28 27 28 26 26 26 27 28 25 21 17 17 17 15 12 12 10 15 14 14 11 10 9 10 10 10 6 6 5 4 2 1 -0 -3 -4 -5 -6 -6 -8 -10 -14 -8 -8 -5 1 5 4 6 5 2 6 2 5 9 11 11 16 17 20 26 29
49 48 49 49 49 49 49 50 50 49 49 50 43 38 39 41 41 41 40 38 35 34 29 24 23 24 22 25 26 27 23 24 20 18 23 26 22 20 19 16 16 13 12 11 10 15 15 13 13 12 12 12 13 11 9 8 5 2 1 0 -2 -4 -7 -7 -6 -4 -6 -8 -11 -6 -7 -1 2 4 8 7 6 8 5 1 4 9 13 10 15 21 27 30
48 48 48 49 49 49 50 49 49 49 50 46 43 41 43 42 41 41 40 38 33 33 27 24 23 22 23 21 26 25 24 26 25 20 27 25 21 22 19 19 18 18 17 15 12 10 8 9 10 9 9 9 8 10 10 10 9 6 3 1 -1 -4 -4 -4 -4 -3 -5 -6 -6 0 -2 -6 -2 1 3 4 8 14 15 13 13 12 11 19 25 28 35 35
49 48 48 48 49 49 49 49 49 43 46 48 43 44 43 44 43 42 41 40 35 30 25 24 26 25 25 26 28 27 26 25 28 29 27 25 23 22 21 22 20 17 16 16 14 12 11 11 12 12 11 9 7 8 9 9 9 7 5 4 3 1 -2 -3 -0 -0 -3 -0 -5 -1 2 2 1 -2 1 4 6 9 9 12 8 14 14 14 27 33 35 39
48 48 48 49 49 49 49 50 45 44 44 46 44 45 45 43 45 43 42 37 30 24 24 22 27 23 26 21 23 23 26 26 29 29 28 27 29 25 25 23 22 18 19 15 14 15 13 13 13 11 12 11 10 10 9 7 8 9 6 5 3 -0 -4 -4 -6 -4 0 -0 -4 -2 0 5 6 4 3 2 1 -0 8 10 6 5 15 16 23 28 33 37
49 48 48 49 49 49 48 42 45 49 42 42 44 46 44 44 48 44 41 35 28 22 23 23 23 25 27 24 24 24 21 33 25 26 23 28 25 27 24 22 22 20 19 23 19 15 16 15 14 14 14 11 9 9 10 10 7 7 8 7 6 4 -0 -1 -0 -1 -3 -1 -3 -4 -3 1 3 5 8 6 2 5 9 6 7 11 11 18 25 29 32 28
49 48 49 49 49 49 48 49 49 47 41 43 46 45 45 45 46 46 41 28 23 21 24 23 26 29 26 23 21 19 21 24 24 28 26 27 28 26 26 23 23 24 26 24 19 17 17 16 17 14 15 13 10 10 11 11 10 9 9 9 8 8 7 5 4 4 0 -1 -1 -2 -3 -1 0 4 6 7 5 6 5 6 6 6 9 18 23 22 25 26
48 49 48 49 49 49 50 48 49 48 44 46 45 45 46 48 46 41 35 22 30 23 28 26 27 27 24 21 20 19 20 25 24 28 26 26 28 28 25 24 25 25 26 26 22 19 19 20 19 18 16 14 15 15 13 12 12 11 11 10 9 9 8 8 7 5 6 4 3 -1 -3 -3 -4 -1 -1 1 0 6 7 6 4 4 5 8 16 22 24 23
48 48 49 49 49 51 49 50 50 48 44 46 47 47 47 46 43 37 31 17 31 25 26 23 23 23 23 24 20 21 22 23 23 24 26 26 26 27 26 26 26 28 27 27 26 25 25 28 27 24 21 20 17 16 16 16 15 15 13 12 10 9 8 9 10 9 9 8 6 1 -2 -4 -4 -1 -0 2 2 1 5 4 5 6 11 10 17 17 18 16
49 49 49 49 48 49 47 46 44 40 45 47 47 48 47 43 36 29 21 25 25 29 25 26 25 24 26 26 24 22 23 22 20 22 26 28 27 26 29 27 29 26 27 27 26 26 25 25 26 30 23 21 21 20 19 17 17 15 15 13 12 12 12 12 12 12 10 8 7 8 3 -2 -3 0 -3 1 2 -1 1 5 6 6 4 8 17 11 16 21
48 48 49 49 47 48 45 43 44 43 47 49 49 47 42 34 37 20 22 29 23 28 29 27 27 29 27 27 26 22 18 19 23 22 22 24 27 27 36 29 28 26 24 24 23 24 23 22 22 21 28 21 20 20 20 19 18 16 14 14 13 10 15 11 12 11 10 7 9 8 6 1 -1 2 0 -2 -3 -1 2 -1 4 8 6 11 11 16 17 20
48 48 49 48 47 47 46 46 45 49 51 49 49 44 39 29 22 25 25 25 25 30 28 31 31 29 29 29 20 20 17 18 20 23 22 27 27 28 30 28 27 26 24 26 26 24 24 24 22 23 23 33 27 21 19 19 18 17 17 16 14 11 12 10 9 13 11 10 9 9 10 6 3 6 6 4 1 -1 3 8 8 10 16 15 11 14 16 24
47 48 49 49 50 46 46 50 49 48 49 50 46 42 37 30 24 30 27 29 30 31 31 32 31 32 28 17 25 19 14 18 18 20 20 24 26 28 25 27 26 27 31 28 24 27 24 21 21 23 28 31 32 21 21 20 18 18 20 24 19 16 14 15 12 11 12 10 10 10 6 9 7 10 8 8 7 2 -2 -2 7 13 13 23 18 11 16 24
47 50 51 52 53 51 51 46 50 51 51 47 42 37 32 24 26 27 27 31 31 31 31 32 31 27 22 21 22 18 20 22 19 21 22 22 25 23 26 26 29 28 29 26 28 29 24 24 25 28 29 28 26 26 23 19 17 18 18 19 19 17 28 21 20 18 18 19 19 16 14 10 6 6 5 3 2 3 3 1 8 7 13 13 21 25 29 26
48 51 52 51 51 45 43 43 47 50 48 45 39 29 25 30 28 30 30 34 32 31 31 31 29 22 22 20 21 18 22 19 20 20 22 23 23 24 26 25 27 29 29 28 31 28 28 26 27 29 29 29 28 26 25 22 18 19 19 18 18 19 20 23 24 24 25 21 18 19 18 16 14 12 7 5 5 5 5 6 4 2 5 19 23 25 26 29
47 49 46 47 40 37 42 44 46 47 46 44 37 26 30 31 29 27 34 31 32 33 31 26 26 22 22 20 20 21 20 18 21 18 19 19 25 23 24 28 30 31 31 30 30 33 30 28 31 29 27 25 26 26 25 25 26 29 20 22 27 25 23 23 19 19 19 18 16 15 13 12 10 10 8 3 5 6 5 4 5 10 8 10 24 31 27 31
48 49 47 43 41 39 41 43 48 48 47 42 35 33 32 30 32 32 32 34 33 32 29 27 26 26 24 22 20 20 23 18 20 21 21 22 22 21 25 28 29 30 32 33 30 34 35 28 28 27 25 23 24 25 24 25 25 32 24 36 23 22 21 21 20 15 14 14 14 14 13 12 8 9 6 2 3 5 6 4 5 6 5 11 19 22 22 24
49 49 46 41 39 39 40 46 45 43 44 39 29 27 32 30 30 32 35 34 34 33 28 28 28 29 27 24 24 23 20 18 20 20 19 21 19 23 26 26 28 31 33 35 33 36 36 28 28 27 24 26 25 22 22 22 25 28 26 26 32 29 27 22 22 20 19 17 16 12 10 12 11 11 9 2 5 5 3 5 6 8 6 11 12 13 16 23
49 45 42 42 40 43 44 42 42 43 42 33 28 33 31 35 31 31 33 33 33 31 30 30 30 27 27 28 26 22 19 19 21 21 19 21 19 22 26 31 32 34 35 37 35 36 33 35 27 28 28 27 24 23 22 23 24 24 28 27 30 30 30 28 27 19 17 17 17 16 14 15 16 10 9 4 6 7 6 6 10 13 15 13 18 22 23 21
49 44 43 46 40 44 47 45 42 38 30 32 34 33 33 33 34 35 35 35 35 36 32 31 29 27 28 26 24 21 20 22 21 18 18 19 20 22 35 31 34 34 36 38 35 37 32 33 29 29 27 26 24 25 23 24 25 32 29 27 29 29 27 24 19 20 17 19 18 15 14 17 15 11 11 11 11 9 8 8 12 11 13 20 26 32 24 26
47 40 42 44 44 45 45 42 38 35 33 31 32 34 34 37 35 33 33 34 33 32 32 32 31 30 27 27 24 21 24 21 19 19 21 20 24 24 37 36 37 35 35 32 33 36 35 33 31 29 27 26 27 26 27 26 29 29 28 27 27 28 27 23 18 18 18 18 22 19 19 20 22 17 23 16 13 10 13 18 21 22 24 27 29 32 31 27
40 38 47 47 45 44 42 33 34 31 33 35 35 34 34 35 35 35 33 34 33 33 32 32 31 29 29 28 24 22 22 21 19 22 21 23 24 28 36 37 38 35 37 32 35 35 37 32 29 28 27 27 26 28 29 31 30 28 28 28 27 25 25 24 23 22 21 22 20 20 19 20 25 23 26 26 21 22 22 21 21 22 33 36 36 39 40 33
43 42 43 46 47 45 39 29 30 30 31 37 36 37 36 36 36 35 33 33 33 32 33 31 32 32 28 25 24 21 22 22 21 19 21 24 24 27 38 38 36 33 35 34 33 38 31 31 30 27 26 25 24 29 31 31 30 29 27 27 26 25 25 25 25 25 22 21 22 20 16 18 22 23 22 20 20 20 20 23 28 28 36 38 38 38 39 39
45 45 42 40 42 42 36 36 35 32 34 35 34 35 34 36 38 36 35 33 32 32 33 32 31 29 26 26 25 23 25 23 23 24 24 24 26 27 39 35 35 36 39 39 38 39 34 32 31 26 23 21 20 22 24 28 31 32 30 29 28 27 26 27 24 23 20 21 21 21 21 20 19 22 21 20 22 22 25 26 29 31 34 37 39 40 42 41
38 34 37 36 39 39 38 40 38 35 33 35 32 34 34 33 35 36 35 33 33 33 32 33 29 27 26 26 25 25 23 23 24 25 25 26 27 27 30 34 39 38 41 40 40 39 33 34 32 31 29 27 28 30 33 34 34 31 31 31 30 29 29 29 28 23 20 22 21 21 20 20 19 18 21 25 22 25 26 29 32 32 34 35 39 38 39 43
44 36 35 34 37 36 35 35 36 36 33 36 31 33 33 33 33 34 35 32 33 34 34 33 29 27 26 27 26 24 24 25 26 25 28 28 28 27 32 34 39 40 41 39 40 37 34 32 32 32 32 33 35 35 36 36 33 33 32 31 30 27 28 29 27 22 23 22 20 24 23 22 21 22 28 21 28 26 27 31 31 32 33 34 38 39 42 38
35 38 39 41 37 34 34 33 36 36 37 36 34 34 33 33 33 33 35 33 34 33 33 32 31 29 28 27 26 25 26 26 27 28 30 28 27 28 28 32 34 42 41 38 41 39 34 31 33 33 33 35 36 35 35 34 34 33 33 32 31 31 26 25 26 25 26 23 20 23 25 24 22 23 21 18 27 26 26 28 31 32 31 33 40 41 38 37
40 40 39 41 37 37 37 37 38 37 35 37 34 34 34 34 32 34 34 33 33 33 33 30 30 30 29 26 28 26 27 25 26 28 29 29 29 29 30 31 37 36 35 36 41 40 36 32 33 34 33 33 34 33 34 34 35 35 34 33 31 29 30 30 24 24 24 26 25 25 26 26 25 23 22 23 24 22 28 29 31 29 30 31 33 39 38 39
39 39 37 40 40 38 38 37 37 36 33 36 33 35 35 34 33 33 33 33 32 33 33 31 30 30 30 28 29 27 29 29 29 28 31 30 29 29 30 32 30 33 35 35 36 37 36 31 34 33 32 32 33 33 35 36 36 35 36 36 32 32 33 34 32 30 27 26 26 27 27 25 25 26 26 24 26 25 31 28 29 30 29 31 34 38 30 33
43 44 43 39 37 37 37 37 36 35 32 36 33 35 35 34 33 34 33 34 34 33 33 30 31 31 31 30 30 29 29 29 28 29 29 29 27 30 29 31 34 33 35 33 35 36 38 33 35 34 31 30 33 34 37 37 36 35 34 33 34 34 33 34 33 34 32 29 29 29 25 24 24 24 23 23 21 19 26 28 27 28 29 28 27 26 27 27
44 45 45 42 37 38 36 37 36 34 31 36 36 35 35 34 35 35 33 34 34 32 33 33 32 31 31 31 28 27 30 29 28 28 27 26 27 27 30 31 30 32 33 33 35 36 35 35 33 33 31 30 32 35 36 34 35 31 30 33 35 36 36 35 33 35 35 35 30 24 22 24 23 24 21 19 19 16 17 17 25 26 25 23 24 25 25 25